ONEWEB-0327 (49196 NORAD) Tracking and Keplerian Element Data

This shows tracking and keplerian element data for the satellite.

Feedback or suggestion? Click here.




ElementValue
Catalog49196
NameONEWEB-0327
Epoch Orbit590
Epoch Day288.25002315
Epoch Year2021
RAAN317.8668
Inclination87.5232
Eccentricity0.0021194
Argument of Perigee189.8378
Mean Anonmoly252.5299
Mean Motion14.89409117
Decay Rate-0.01374122
L11 49196U 21083L 21288.25002315 -.01374122 00000-0 -15711+0 0 9998
L22 49196 87.5232 317.8668 0021194 189.8378 252.5299 14.89409117 5900

Live tracking and technical data element details for ONEWEB-0327 (NORAD 49196). ONEWEB-0327 can be tracked NOW for your location showing map with azimuth and elevation plus other details from your city location.

Track the satellite on the map from your city or location and see movement details for azimuth, elevation, latitude, longitude, range, height, and movement on the map or in text.







IsCatalogInMostPopularTable: catalog: 49196, numindb: 8
Update: records affected: 1



GetName: 49196 ONEWEB-0327

Hit Count: updated at: Tue, 19 Oct 2021 07:59:07 GMT